GW2841 Weather Reports


Display with metric or nautical units.
time (UTC)temp
F
wind
direction
speed
MPH
gust
MPH
rain 1hr
in
rain 24hr
in
rain mn
in
humidity
%
barometer
mb
20260506091546 57 0 0.0 0.0 0.00 0.00 0.00 50 1013.5
20260506091033 58 0 0.0 0.0 0.00 0.00 0.00 50 1013.5
20260506090534 58 0 0.0 0.0 0.00 0.00 0.00 48 1013.5
20260506090058 58 0 0.0 0.0 0.00 0.00 0.00 48 1013.5
20260506085532 58 0 0.0 0.0 0.00 0.16 0.00 49 1013.5
20260506085032 58 0 0.0 0.0 0.00 0.16 0.00 50 1013.5
20260506084546 58 0 0.0 0.0 0.00 0.16 0.00 52 1013.5
20260506084032 58 0 0.0 0.0 0.00 0.16 0.00 55 1013.5
20260506083535 58 0 0.0 0.0 0.00 0.16 0.00 54 1013.5
20260506083042 57 0 0.0 0.0 0.00 0.16 0.00 56 1013.5
20260506082533 58 0 0.0 0.0 0.00 0.16 0.00 55 1013.5
20260506082033 57 0 0.0 0.0 0.00 0.16 0.00 56 1013.4
20260506081544 57 0 0.0 0.0 0.00 0.16 0.00 55 1013.5
20260506081031 58 0 0.0 0.0 0.00 0.16 0.00 55 1013.5
20260506080535 58 0 0.0 0.0 0.00 0.16 0.00 54 1013.5
20260506073047 59 0 0.0 0.0 0.00 0.22 0.00 51 1013.4
20260506072530 60 0 0.0 0.0 0.00 0.22 0.00 51 1013.3
20260506072032 60 0 0.0 0.0 0.00 0.22 0.00 50 1013.3
20260506071542 60 0 0.0 0.0 0.00 0.22 0.00 50 1013.2
20260506071029 60 0 0.0 0.0 0.00 0.22 0.00 48 1013.2
20260506070531 60 0 0.0 0.0 0.00 0.22 0.00 49 1013.1
20260506062030 61 0 0.0 0.0 0.00 0.22 0.22 45 1013.2
20260506061548 62 0 0.0 0.0 0.00 0.22 0.22 45 1013.1
20260506061034 62 0 0.0 0.0 0.00 0.22 0.22 44 1012.9
20260506060533 62 0 0.0 0.0 0.00 0.22 0.22 43 1012.9
20260506051030 66 0 0.0 0.0 0.00 0.22 0.22 34 1013.0
20260506050530 66 0 0.0 0.0 0.00 0.22 0.22 34 1012.9
20260506045034 67 0 0.0 0.0 0.00 0.22 0.22 33 1012.4
20260506044546 67 0 0.0 0.0 0.00 0.22 0.22 32 1012.4
20260506044030 67 0 0.0 0.0 0.00 0.22 0.22 34 1012.4
20260506043530 67 0 0.0 0.0 0.00 0.22 0.22 33 1012.3
20260506043044 67 0 0.0 0.0 0.00 0.22 0.22 32 1012.3
20260506042530 68 0 0.0 0.0 0.00 0.22 0.22 32 1012.4
20260506042030 68 0 0.0 0.0 0.00 0.22 0.22 31 1012.2
20260506041556 68 0 0.0 3.0 0.00 0.22 0.22 31 1012.3
20260506041031 68 0 0.0 3.0 0.00 0.22 0.22 31 1012.1
20260506040531 69 286 1.0 4.0 0.00 0.22 0.22 30 1012.1
20260506040041 69 286 1.0 4.0 0.00 0.22 0.22 30 1012.1
20260506035535 69 286 2.0 4.0 0.00 0.22 0.22 30 1012.0
20260506035032 69 286 2.0 4.0 0.00 0.22 0.22 30 1012.0
20260506034552 69 286 0.0 4.0 0.00 0.22 0.22 30 1011.8
20260506034031 69 286 2.0 4.0 0.00 0.22 0.22 29 1011.8
20260506033534 69 286 1.0 4.0 0.00 0.22 0.22 30 1011.7
20260506033046 69 286 2.0 6.0 0.00 0.22 0.22 29 1011.8
20260506032533 70 286 2.0 6.0 0.00 0.22 0.22 29 1011.7
20260506032030 70 301 2.0 6.0 0.00 0.22 0.22 29 1011.7
20260506031544 70 289 2.0 7.0 0.00 0.22 0.22 28 1011.5
20260506031032 70 289 2.0 7.0 0.00 0.22 0.22 28 1011.3
20260506030531 70 279 3.0 7.0 0.00 0.22 0.22 28 1011.2
20260506030043 70 279 2.0 7.0 0.00 0.22 0.22 28 1011.2
20260506025536 70 287 2.0 5.0 0.00 0.22 0.22 27 1011.1
20260506025032 71 289 2.0 4.0 0.00 0.22 0.22 27 1011.0
20260506024540 71 286 1.0 5.0 0.00 0.22 0.22 27 1011.0
20260506024032 71 289 2.0 6.0 0.00 0.22 0.22 27 1010.9
20260506023533 71 296 1.0 6.0 0.00 0.22 0.22 26 1010.8
20260506023040 71 286 2.0 6.0 0.00 0.22 0.22 27 1010.8
20260506022531 71 286 2.0 5.0 0.00 0.22 0.22 27 1010.7
20260506022032 71 286 1.0 8.0 0.00 0.22 0.22 27 1010.7
20260506021548 72 286 0.0 8.0 0.00 0.22 0.22 27 1010.5
20260506021035 72 287 4.0 8.0 0.00 0.22 0.22 26 1010.5
20260506020533 72 289 3.0 11.0 0.00 0.22 0.22 27 1010.3
20260506020052 72 290 4.0 11.0 0.00 0.22 0.22 26 1010.3
20260506015533 72 287 6.0 11.0 0.00 0.22 0.22 26 1010.2
20260506015030 72 286 4.0 8.0 0.00 0.22 0.22 26 1010.3
20260506014545 73 279 3.0 10.0 0.00 0.22 0.22 26 1010.1
20260506014030 73 276 6.0 10.0 0.00 0.22 0.22 27 1010.2
20260506013530 73 288 3.0 9.0 0.00 0.22 0.22 27 1010.1
20260506013053 73 287 4.0 10.0 0.00 0.22 0.22 26 1010.1
20260506012534 73 313 5.0 10.0 0.00 0.22 0.22 27 1010.0
20260506012032 74 288 5.0 10.0 0.00 0.22 0.22 26 1010.0
20260506011549 74 279 3.0 10.0 0.00 0.22 0.22 26 1010.0
20260506011032 74 275 2.0 10.0 0.00 0.22 0.22 26 1010.0
20260506010532 75 302 3.0 8.0 0.00 0.22 0.22 27 1010.0
20260506010040 75 277 3.0 12.0 0.00 0.22 0.22 27 1010.0
20260506005535 75 287 5.0 12.0 0.00 0.22 0.22 26 1010.0
20260506005034 75 288 5.0 10.0 0.00 0.22 0.22 27 1009.9
20260506004546 75 267 5.0 11.0 0.00 0.22 0.22 27 1009.8
20260506004031 75 281 3.0 11.0 0.00 0.22 0.22 29 1009.7
20260506003531 75 289 3.0 9.0 0.00 0.22 0.22 27 1009.8
20260506003038 75 267 4.0 13.0 0.00 0.22 0.22 26 1009.8
20260506002531 75 267 3.0 13.0 0.00 0.22 0.22 26 1009.6
20260506002034 76 277 5.0 14.0 0.00 0.22 0.22 25 1009.7
20260506001553 75 272 4.0 14.0 0.00 0.22 0.22 25 1009.6
20260506001031 75 236 5.0 10.0 0.00 0.22 0.22 26 1009.7
20260506000529 75 286 4.0 8.0 0.00 0.22 0.22 28 1009.8
20260506000044 75 286 4.0 12.0 0.00 0.22 0.22 27 1009.8
20260505235530 75 285 5.0 12.0 0.00 0.22 0.22 26 1009.8
20260505235032 76 275 3.0 11.0 0.00 0.22 0.22 26 1009.7
20260505234542 76 266 5.0 11.0 0.00 0.22 0.22 26 1009.7
20260505234034 76 276 6.0 10.0 0.00 0.22 0.22 26 1009.7
20260505233536 76 288 3.0 12.0 0.00 0.22 0.22 26 1009.6
20260505233039 76 273 6.0 12.0 0.00 0.22 0.22 27 1009.6
20260505232535 76 311 4.0 14.0 0.00 0.22 0.22 28 1009.6
20260505232032 76 278 4.0 14.0 0.00 0.22 0.22 27 1009.6
20260505231539 76 274 5.0 13.0 0.00 0.22 0.22 28 1009.6
20260505231031 76 236 5.0 13.0 0.00 0.22 0.22 28 1009.6
20260505230533 76 280 6.0 13.0 0.00 0.22 0.22 28 1009.5
20260505230100 76 286 4.0 14.0 0.00 0.22 0.22 31 1009.5
20260505225533 76 276 6.0 14.0 0.00 0.22 0.22 28 1009.7
20260505225034 76 246 3.0 14.0 0.00 0.22 0.22 28 1009.8
20260505224547 76 280 6.0 12.0 0.00 0.22 0.22 28 1009.8
20260505224031 76 0 3.0 14.0 0.00 0.22 0.22 28 1009.8
20260505223534 76 0 3.0 14.0 0.00 0.22 0.22 28 1009.9
20260505223045 76 232 7.0 14.0 0.00 0.22 0.22 27 1010.1
20260505222530 76 270 7.0 14.0 0.00 0.22 0.22 28 1010.0
20260505222035 76 217 1.0 10.0 0.00 0.22 0.22 28 1010.0
20260505221545 76 280 3.0 12.0 0.00 0.22 0.22 30 1010.1
20260505221031 76 287 6.0 12.0 0.00 0.22 0.22 30 1010.1
20260505220529 75 271 6.0 13.0 0.00 0.22 0.22 29 1010.1
20260505220051 75 271 6.0 13.0 0.00 0.22 0.22 29 1010.2
20260505215534 76 273 5.0 10.0 0.00 0.22 0.22 30 1010.2
20260505215030 76 283 6.0 12.0 0.00 0.22 0.22 31 1010.1
20260505214538 75 296 6.0 12.0 0.00 0.22 0.22 32 1010.2
20260505214032 76 300 2.0 11.0 0.00 0.22 0.22 32 1010.3
20260505213530 76 265 5.0 11.0 0.00 0.22 0.22 31 1010.3
20260505213044 76 278 6.0 13.0 0.00 0.22 0.22 30 1010.4
20260505212530 76 280 4.0 13.0 0.00 0.22 0.22 35 1010.3
20260505212033 75 281 5.0 13.0 0.00 0.22 0.22 34 1010.3
20260505211557 74 284 3.0 11.0 0.00 0.22 0.22 36 1010.4
20260505211029 75 283 5.0 11.0 0.00 0.22 0.22 36 1010.6
20260505210529 75 288 4.0 10.0 0.00 0.22 0.22 35 1010.7
20260505210038 75 280 5.0 11.0 0.00 0.22 0.22 35 1010.9
20260505205530 75 275 4.0 11.0 0.00 0.22 0.22 35 1010.9
20260505205031 74 0 0.0 9.0 0.00 0.22 0.22 37 1010.9
20260505204538 74 286 2.0 10.0 0.00 0.22 0.22 36 1011.0
20260505204033 74 271 4.0 10.0 0.00 0.22 0.22 38 1011.0
20260505203531 74 229 3.0 10.0 0.00 0.22 0.22 37 1011.0
20260505203038 73 248 3.0 7.0 0.00 0.22 0.22 39 1011.1
20260505202533 73 263 2.0 10.0 0.00 0.22 0.22 40 1011.1
20260505202031 74 275 5.0 10.0 0.00 0.22 0.22 39 1011.1
20260505201549 75 281 3.0 9.0 0.00 0.22 0.22 39 1011.0
20260505201035 75 270 1.0 10.0 0.00 0.22 0.22 38 1011.1
20260505200530 75 275 5.0 12.0 0.00 0.22 0.22 37 1011.0
20260505200045 75 238 4.0 12.0 0.00 0.22 0.22 40 1011.0
20260505195530 75 251 2.0 10.0 0.00 0.22 0.22 39 1011.1
20260505195035 75 284 4.0 10.0 0.00 0.22 0.22 39 1011.2
20260505194542 75 283 4.0 11.0 0.00 0.22 0.22 40 1011.3
20260505194030 75 265 3.0 11.0 0.00 0.22 0.22 42 1011.2
20260505193530 75 271 4.0 11.0 0.00 0.22 0.22 41 1011.3
20260505193050 75 279 5.0 9.0 0.00 0.22 0.22 44 1011.3
20260505192535 74 269 3.0 9.0 0.00 0.22 0.22 39 1011.4
20260505192032 75 288 2.0 9.0 0.00 0.22 0.22 41 1011.6
20260505191543 75 267 3.0 9.0 0.00 0.22 0.22 39 1011.5
20260505191034 74 281 2.0 9.0 0.00 0.22 0.22 44 1011.7
20260505190533 74 278 3.0 11.0 0.00 0.22 0.22 43 1011.7
20260505190038 73 271 4.0 11.0 0.00 0.22 0.22 44 1011.7
20260505185531 73 286 6.0 11.0 0.00 0.22 0.22 44 1011.8
20260505185032 73 277 1.0 10.0 0.00 0.22 0.22 45 1011.8
20260505184548 72 213 4.0 10.0 0.00 0.22 0.22 45 1012.0
20260505184030 72 284 4.0 9.0 0.00 0.22 0.22 46 1011.9
20260505183535 72 279 3.0 9.0 0.00 0.22 0.22 48 1012.0
20260505183044 71 290 3.0 8.0 0.00 0.22 0.22 46 1012.0
20260505182530 71 268 2.0 9.0 0.00 0.22 0.22 47 1012.2
20260505182034 70 263 3.0 9.0 0.00 0.22 0.22 46 1012.1
20260505181556 71 307 5.0 9.0 0.00 0.22 0.22 46 1012.1
20260505181030 71 285 3.0 8.0 0.00 0.22 0.22 47 1012.1
20260505180530 71 0 3.0 9.0 0.00 0.22 0.22 49 1012.1
20260505180050 71 263 4.0 9.0 0.00 0.22 0.22 47 1012.1
20260505175533 72 284 4.0 8.0 0.00 0.22 0.22 49 1012.1
20260505175033 72 235 1.0 6.0 0.00 0.22 0.22 52 1012.1
20260505174547 72 146 1.0 7.0 0.00 0.22 0.22 51 1012.1
20260505174034 71 0 0.0 9.0 0.00 0.22 0.22 55 1012.1
20260505173533 71 274 2.0 10.0 0.00 0.22 0.22 52 1012.3
20260505173045 70 0 2.0 10.0 0.00 0.22 0.22 55 1012.3
20260505172534 69 266 2.0 7.0 0.00 0.22 0.22 55 1012.2
20260505172030 69 198 3.0 7.0 0.00 0.22 0.22 55 1012.3
20260505171544 69 273 2.0 9.0 0.00 0.22 0.22 55 1012.3
20260505171033 69 0 2.0 9.0 0.00 0.22 0.22 56 1012.1
20260505170529 69 274 3.0 8.0 0.00 0.22 0.22 55 1012.2
20260505170044 70 0 0.0 6.0 0.00 0.22 0.22 55 1012.2
20260505165533 70 0 2.0 7.0 0.00 0.22 0.22 54 1012.1
20260505165032 70 210 2.0 7.0 0.00 0.22 0.22 53 1012.1
20260505164539 69 238 3.0 7.0 0.00 0.22 0.22 56 1012.1
20260505164030 70 0 0.0 6.0 0.00 0.22 0.22 55 1012.1
20260505163529 69 0 0.0 6.0 0.00 0.22 0.22 58 1012.1
20260505163048 68 0 0.0 6.0 0.00 0.22 0.22 59 1012.1
20260505162533 68 0 0.0 6.0 0.00 0.22 0.22 59 1012.1
20260505162033 67 0 0.0 8.0 0.00 0.22 0.22 60 1012.2
20260505161547 68 279 3.0 9.0 0.00 0.22 0.22 59 1012.2
20260505161033 68 279 4.0 9.0 0.00 0.22 0.22 59 1012.1
20260505160533 69 275 3.0 8.0 0.00 0.22 0.22 58 1012.0
20260505153041 70 0 0.0 4.0 0.00 0.22 0.22 58 1011.9
20260505152529 69 198 1.0 4.0 0.00 0.22 0.22 57 1011.8
20260505152030 69 211 0.0 3.0 0.00 0.22 0.22 61 1011.7
20260505151539 69 0 0.0 3.0 0.00 0.22 0.22 62 1011.7
20260505151034 69 0 0.0 5.0 0.00 0.22 0.22 66 1011.8
20260505150535 68 182 2.0 5.0 0.00 0.22 0.22 67 1011.8
20260505140535 63 89 1.0 4.0 0.00 0.22 0.22 81 1011.9
20260505125034 62 0 0.0 3.0 0.00 0.22 0.22 82 1011.2
20260505124550 62 0 0.0 4.0 0.00 0.22 0.22 82 1011.1
20260505124033 62 0 1.0 4.0 0.00 0.22 0.22 82 1011.1
20260505123531 62 128 2.0 8.0 0.00 0.22 0.22 82 1011.0
20260505123054 62 138 1.0 8.0 0.00 0.22 0.22 81 1011.0
20260505122532 62 132 3.0 8.0 0.00 0.22 0.22 81 1010.9
20260505122034 62 140 2.0 5.0 0.00 0.22 0.22 81 1010.9
20260505121551 62 163 1.0 5.0 0.00 0.22 0.22 80 1011.0
20260505121031 62 146 1.0 5.0 0.00 0.22 0.22 80 1010.8
20260505120533 62 126 1.0 5.0 0.00 0.22 0.22 80 1010.9
20260505120038 62 0 0.0 6.0 0.00 0.22 0.22 80 1010.8
20260505115535 62 180 1.0 6.0 0.00 0.22 0.22 80 1010.9
20260505115033 62 190 1.0 8.0 0.00 0.22 0.22 80 1010.8
20260505114544 62 154 2.0 8.0 0.00 0.22 0.22 80 1010.8
20260505114030 62 176 3.0 8.0 0.00 0.22 0.22 80 1010.8
20260505113530 62 126 3.0 8.0 0.00 0.22 0.22 80 1010.7
20260505113043 62 142 4.0 8.0 0.00 0.22 0.22 80 1010.8
20260505112533 62 140 4.0 8.0 0.00 0.22 0.22 79 1010.7
20260505112034 62 114 4.0 8.0 0.00 0.22 0.22 79 1010.9
20260505111540 62 133 4.0 9.0 0.00 0.22 0.22 79 1010.8
20260505111035 62 139 4.0 9.0 0.00 0.22 0.22 79 1010.9
20260505110533 62 95 4.0 9.0 0.00 0.22 0.22 79 1010.8
20260505102030 62 140 1.0 9.0 0.00 0.22 0.22 77 1011.9
20260505101550 62 162 1.0 9.0 0.00 0.22 0.22 76 1011.8
20260505101034 62 129 3.0 10.0 0.00 0.22 0.22 75 1011.8
20260505100536 63 155 4.0 10.0 0.00 0.22 0.22 75 1011.9
20260505100049 63 121 4.0 10.0 0.00 0.22 0.22 74 1011.8
20260505095535 63 140 5.0 9.0 0.00 0.22 0.22 73 1011.9
20260505095035 63 150 2.0 8.0 0.00 0.22 0.22 73 1011.9
20260505094547 62 167 3.0 8.0 0.00 0.22 0.22 73 1012.0
20260505094034 62 192 2.0 7.0 0.00 0.22 0.22 74 1012.0
20260505093537 62 162 3.0 7.0 0.00 0.22 0.22 74 1011.9
20260505093048 62 133 2.0 7.0 0.01 0.22 0.22 75 1011.9
20260505092535 61 172 1.0 5.0 0.01 0.22 0.22 77 1011.9
20260505092033 61 155 1.0 7.0 0.02 0.22 0.22 77 1012.0